DW8816 Weather Reports


time (UTC)temp
C
wind
direction
speed
KPH
gust
KPH
rain 1hr
cm
rain 24hr
cm
rain mn
cm
humidity
%
barometer
mb
20260906161004 24 202 6.4 24.1 0.00 0.00 0.00 49 1017.5
20260906160004 25 199 4.8 24.1 0.00 0.00 0.00 49 1017.4
20260906154004 25 197 6.4 20.9 0.00 0.00 0.00 47 1017.4
20260906153005 26 189 4.8 25.7 0.00 0.00 0.00 47 1017.5
20260906152003 26 190 4.8 14.5 0.00 0.00 0.00 46 1017.5
20260906151003 26 220 6.4 17.7 0.00 0.00 0.00 44 1017.5
20260906150003 27 163 6.4 17.7 0.00 0.00 0.00 44 1017.5
20260906145003 27 228 8.0 19.3 0.00 0.00 0.00 44 1017.7
20260906144004 26 218 6.4 24.1 0.00 0.00 0.00 44 1017.8
20260906143004 26 208 4.8 20.9 0.00 0.00 0.00 46 1018.0
20260906142004 26 213 4.8 22.5 0.00 0.00 0.00 45 1018.2
20260906141004 26 218 4.8 14.5 0.00 0.00 0.00 45 1018.3
20260906140004 26 227 4.8 17.7 0.00 0.00 0.00 44 1018.4
20260906135003 26 219 6.4 16.1 0.00 0.00 0.00 45 1018.4
20260906134003 26 245 6.4 22.5 0.00 0.00 0.00 44 1018.6
20260906133004 26 216 6.4 19.3 0.00 0.00 0.00 46 1018.7
20260906132004 26 252 6.4 17.7 0.00 0.00 0.00 47 1018.9
20260906131004 26 188 8.0 22.5 0.00 0.00 0.00 46 1019.1
20260906125004 26 233 6.4 19.3 0.00 0.00 0.00 48 1019.3
20260906124004 25 236 8.0 29.0 0.00 0.00 0.00 48 1019.3
20260906123004 25 240 6.4 19.3 0.00 0.00 0.00 49 1019.4
20260906122004 25 228 6.4 17.7 0.00 0.00 0.00 50 1019.6
20260906121004 25 196 6.4 20.9 0.00 0.00 0.00 51 1019.6
20260906120004 25 226 9.7 24.1 0.00 0.00 0.00 54 1019.6
20260906115004 25 246 6.4 22.5 0.00 0.00 0.00 53 1019.8
20260906114004 24 228 6.4 17.7 0.00 0.00 0.00 54 1019.8
20260906113004 24 221 8.0 27.4 0.00 0.00 0.00 55 1020.0
20260906111004 23 209 4.8 17.7 0.00 0.00 0.00 58 1020.1
20260906110004 23 190 4.8 14.5 0.00 0.00 0.00 60 1020.3
20260906105004 23 191 6.4 20.9 0.00 0.00 0.00 60 1020.4
20260906104003 23 237 6.4 17.7 0.00 0.00 0.00 62 1020.5
20260906103004 23 235 4.8 19.3 0.00 0.00 0.00 63 1020.6
20260906101004 22 247 4.8 16.1 0.00 0.00 0.00 68 1020.8
20260906100004 21 206 6.4 16.1 0.00 0.00 0.00 70 1020.7
20260906095004 21 185 6.4 20.9 0.00 0.00 0.00 71 1020.9
20260906094003 21 218 6.4 20.9 0.00 0.00 0.00 71 1021.1
20260906093004 20 220 8.0 19.3 0.00 0.00 0.00 71 1021.2
20260906092004 20 190 6.4 27.4 0.00 0.00 0.00 73 1021.3
20260906091004 20 189 6.4 19.3 0.00 0.00 0.00 74 1021.3
20260906090005 20 201 6.4 16.1 0.00 0.00 0.00 75 1021.2
20260906085004 19 200 4.8 17.7 0.00 0.00 0.00 76 1021.2
20260906084004 19 204 4.8 19.3 0.00 0.00 0.00 76 1021.3
20260906083004 18 210 6.4 20.9 0.00 0.00 0.00 77 1021.3
20260906081004 18 199 4.8 14.5 0.00 0.00 0.00 80 1021.6
20260906075004 17 193 1.6 14.5 0.00 0.00 0.00 82 1021.8
20260906073003 16 242 0.0 8.0 0.00 0.00 0.00 82 1021.8
20260906072003 16 154 1.6 8.0 0.00 0.00 0.00 83 1021.9
20260906071005 16 177 0.0 8.0 0.00 0.00 0.00 83 1021.9
20260906070003 15 0 0.0 4.8 0.00 0.00 0.00 84 1022.0
20260906064004 14 0 0.0 0.0 0.00 0.00 0.00 88 1022.0
20260906062004 13 0 0.0 0.0 0.00 0.00 0.00 88 1022.0
20260906060004 13 0 0.0 0.0 0.00 0.00 0.00 88 1022.2
20260906055003 13 0 0.0 0.0 0.00 0.00 0.00 87 1022.4
20260906054004 13 0 0.0 0.0 0.00 0.00 0.00 87 1022.5
20260906052004 13 0 0.0 0.0 0.00 0.00 0.00 86 1022.6
20260906051004 13 0 0.0 0.0 0.00 0.00 0.00 86 1022.6
20260906050004 13 0 0.0 0.0 0.00 0.00 0.00 86 1022.6
20260906045004 13 0 0.0 0.0 0.00 0.00 0.00 86 1022.4
20260906043004 13 0 0.0 0.0 0.00 0.00 0.00 85 1022.7
20260906042004 13 0 0.0 0.0 0.00 0.00 0.00 85 1022.7
20260906041004 13 0 0.0 0.0 0.00 0.00 0.00 84 1022.7
20260906040004 13 0 0.0 0.0 0.00 0.00 0.00 84 1022.8
20260906035004 13 0 0.0 0.0 0.00 0.00 0.00 83 1022.8
20260906034005 13 0 0.0 0.0 0.00 0.00 0.00 83 1022.9
20260906033005 13 0 0.0 0.0 0.00 0.00 0.00 82 1022.8
20260906032004 13 0 0.0 0.0 0.00 0.00 0.00 82 1022.8
20260906031004 13 0 0.0 0.0 0.00 0.00 0.00 82 1022.9
20260906024004 13 0 0.0 0.0 0.00 0.00 0.00 82 1023.2
20260906023004 13 0 0.0 0.0 0.00 0.00 0.00 82 1023.4
20260906022003 13 0 0.0 0.0 0.00 0.00 0.00 83 1023.5
20260906020004 13 0 0.0 0.0 0.00 0.00 0.00 83 1023.8
20260906015004 13 0 0.0 0.0 0.00 0.00 0.00 83 1023.8
20260906011004 13 0 0.0 0.0 0.00 0.00 0.00 83 1023.9
20260906010004 13 0 0.0 0.0 0.00 0.00 0.00 83 1023.9
20260906005004 13 0 0.0 0.0 0.00 0.00 0.00 83 1024.0
20260906003005 13 0 0.0 0.0 0.00 0.00 0.00 82 1024.2
20260906001004 14 0 0.0 0.0 0.00 0.00 0.00 80 1024.4
20260906000004 14 0 0.0 0.0 0.00 0.00 0.00 79 1024.3
20260905235003 14 0 0.0 0.0 0.00 0.00 0.00 79 1024.2
20260905233005 15 0 0.0 1.6 0.00 0.00 0.00 78 1024.4
20260905232004 14 0 0.0 0.0 0.00 0.00 0.00 79 1024.3
20260905230004 15 0 0.0 0.0 0.00 0.00 0.00 78 1024.4
20260905224004 15 0 0.0 0.0 0.00 0.00 0.00 77 1024.4
20260905222004 15 0 0.0 0.0 0.00 0.00 0.00 77 1024.3
20260905221004 15 0 0.0 3.2 0.00 0.00 0.00 76 1024.3
20260905220004 15 0 0.0 0.0 0.00 0.00 0.00 76 1024.3
20260905215004 15 0 0.0 1.6 0.00 0.00 0.00 76 1024.3
20260905214005 15 0 0.0 0.0 0.00 0.00 0.00 75 1024.1
20260905213004 15 0 0.0 1.6 0.00 0.00 0.00 74 1024.1
20260905212004 15 0 0.0 0.0 0.00 0.00 0.00 73 1024.0
20260905211004 16 0 0.0 0.0 0.00 0.00 0.00 73 1023.9
20260905210004 16 0 0.0 0.0 0.00 0.00 0.00 73 1024.0
20260905204004 16 0 0.0 0.0 0.00 0.00 0.00 73 1023.8
20260905203002 16 0 0.0 0.0 0.00 0.00 0.00 72 1023.8
20260905202003 16 0 0.0 0.0 0.00 0.00 0.00 72 1023.7
20260905201003 16 0 0.0 0.0 0.00 0.00 0.00 71 1023.8
20260905200003 16 0 0.0 0.0 0.00 0.00 0.00 70 1023.8
20260905195003 17 0 0.0 0.0 0.00 0.00 0.00 69 1023.8
20260905193003 17 0 0.0 0.0 0.00 0.00 0.00 67 1023.8
20260905192003 18 0 0.0 0.0 0.00 0.00 0.00 66 1023.7
20260905191002 18 0 0.0 0.0 0.00 0.00 0.00 64 1023.6
20260905190004 18 0 0.0 0.0 0.00 0.00 0.00 63 1023.5
20260905184003 20 0 0.0 0.0 0.00 0.00 0.00 60 1023.3
20260905183003 20 0 0.0 0.0 0.00 0.00 0.00 58 1023.2
20260905182004 20 0 0.0 3.2 0.00 0.00 0.00 56 1023.3
20260905181003 21 291 1.6 4.8 0.00 0.00 0.00 56 1023.4
20260905180003 21 291 1.6 4.8 0.00 0.00 0.00 54 1023.3
20260905174003 22 295 1.6 8.0 0.00 0.00 0.00 52 1023.2
20260905173003 22 297 1.6 8.0 0.00 0.00 0.00 51 1023.1
20260905172003 22 301 1.6 6.4 0.00 0.00 0.00 51 1023.2
20260905171003 22 299 3.2 8.0 0.00 0.00 0.00 51 1023.1
20260905170003 22 264 3.2 9.7 0.00 0.00 0.00 50 1023.1
20260905165004 22 319 4.8 12.9 0.00 0.00 0.00 52 1023.2
20260905164004 22 294 3.2 14.5 0.00 0.00 0.00 51 1023.2
20260905163003 22 305 3.2 11.3 0.00 0.00 0.00 52 1023.1
20260905162003 22 268 4.8 12.9 0.00 0.00 0.00 51 1023.1